SCP
0 0 0 0 0 0 0 0 0 0 0 0 0 0 0 0 0 0 0 0 0 0 0 0 0 0 0 0 0 0 0 0 0 0 0 0 0 0
0 0 0 0 0 0 0 0 0 0 0 0 0 0 0 0 0 0 0 0 0 0 0 0 0 0 0 0 0 0 0 0 0 0 0 0 0 0
0 0 0 0 0 0 0 0 0 0 0 0 0 0 0 0 0 0 0 0 0 0 0 0 0 0 0 0 0 0 0 0 0 0 0 0 0 0
0 0 0 0 0 0 0 0 0 0 0 0 0 0 0 0 0 0 0 0 0 0 0 0 0 0 0 0 0 0 0 0 0 0 0 0 0 0
0 0 0 0 0 0 0 0 0 0 0 0 0 0 0 0 0 0 0 0 0 0 0 0 0 0 0 0 0 0 0 0 0 0 0 0 0 0
0 0 0 0 0 0 0 0 0 0 0 0 0 0 0 0 0 0 0 0 0 0 0 0 0 0 0 0 0 0 0 0 0 0 0 0 0 0
0 0 0 0 0 0 0 0 0 0 0 0 0 0 0 0 0 0 0 0 0 0 0 0 0 0 0 0 0 0 0 0 0 0 0 0 0 0
0 0 0 0 0 0 0 0 0 0 0 0 0 0 0 0 0 0 0 0 0 0 0 0 0 0 0 0 0 0 0 0 0 0 0 -0 0 0
0 0 0 0 0 0 0 0 0 0 0 0 0 0 0 0 0 0 0 0 0 0 0 0 0 0 0 0 0 0 0 0 0 0 0 0 0 0
0 0 0 0 0 0 0 0 0 0 0 0 0 0 0 0 0 0 0 0 0 0 0 0 0 0 0 0 0 0 0 0 0 0 0 0 0 0
0 0 0 0 0 0 0 0 0 0 0 0 0 0 0 0 0 0 0 0 0 0 0 0 0 0 0 0 0 0 0 0 0 0 0 0 0 -0
0 0 0 0 0 0 0 0 0 0 0 0 0 0 0 0 0 0 0 0 0 0 0 0 0 0 0 -0 -0 0 0 0 0 0 0 0 0 -0
0 0 0 0 0 0 0 0 0 0 0 0 0 0 0 0 0 0 0 0 0 0 0 0 0 0 0 0 0 0 0 0 -0 -0 0 0 0 -0
0 0 0 0 0 0 0 0 0 0 0 0 0 0 0 0 0 0 0 0 0 0 0 0 0 0 0 0 0 0 0 0 0 -0 -0 0 0 -0
0 0 0 0 0 0 0 0 0 0 0 0 0 0 0 0 0 0 0 0 0 -0 0 0 0 0 0 0 0 0 0 -0 -0 -0 0 -0 -0 -0
0 0 0 0 0 0 0 0 0 0 0 0 0 0 0 0 0 0 0 0 0 0 0 -0 0 0 0 0 0 -0 -0 -0 -0 -0 0 0 -0 -0
0 0 0 0 0 0 0 0 0 0 0 0 0 0 0 0 0 0 0 0 0 0 -0 -0 0 0 0 0 0 0 -0 -0 -0 -0 0 -0 -0 0
0 0 0 0 0 0 0 0 0 0 0 0 0 0 0 0 0 0 0 0 0 0 0 -0 -0 0 0 0 0 0 -0 -0 0 0 0 0 0 0
0 0 0 0 0 0 0 0 0 0 0 0 0 0 0 0 0 0 0 0 0 -0 -0 -0 -0 0 0 0 0 0 0 0 0 0 0 0 0 0
0 0 0 0 0 0 0 0 0 0 0 0 0 0 0 0 0 0 0 0 0 -0 -0 -0 -0 -0 -0 0 0 0 0 0 0 0 0 0 0 0
0 0 0 0 0 0 0 0 0 0 0 0 0 -0 0 0 0 0 0 0 -0 -0 -0 -0 -0 -0 -0 -0 0 0 0 0 0 0 0 0 0 0
0 0 0 0 0 0 0 0 0 0 0 0 -0 0 0 0 0 0 0 0 0 0 0 -0 -0 -0 -0 -0 -0 0 0 0 0 0 0 0 0 0
0 0 0 0 0 0 0 0 0 0 0 -0 -0 0 0 0 0 0 0 0 0 0 0 0 0 -0 -0 -0 -0 -0 0 0 -0 0 0 0 0 0
Wind_Speed_500mb
40 39 40 44 47 52 57 59 61 66 128 89 101 105 111 116 119 115 117 122 120 117 101 100 104 113 107 103 107 102 87 82 95 97 113 109 102 92
42 41 42 48 52 56 60 62 62 68 96 119 121 122 124 123 123 119 122 120 123 122 111 99 102 100 102 105 105 101 97 90 86 97 107 121 108 111
41 44 47 51 57 59 61 64 66 66 90 150 122 122 121 123 125 121 119 118 118 109 95 89 88 92 96 99 99 104 102 102 94 92 97 123 129 113
44 48 50 54 59 61 63 66 67 69 74 109 132 127 123 120 121 114 115 112 108 100 90 84 83 84 88 96 102 106 111 110 123 109 106 116 138 132
45 48 53 58 61 62 63 68 68 66 70 86 126 120 126 120 116 105 109 117 108 90 85 79 76 73 78 83 88 96 113 114 123 129 115 118 124 138
46 50 56 59 62 63 64 64 67 69 74 84 104 122 107 108 103 104 110 100 103 98 94 88 85 81 78 80 83 93 100 114 126 130 121 120 122 137
46 51 56 57 58 56 55 61 64 73 78 83 94 96 106 100 90 98 101 112 108 94 101 95 78 79 78 82 76 64 89 112 121 123 128 119 121 136
47 52 55 56 54 54 52 56 61 73 85 89 98 99 112 102 102 98 99 104 118 81 83 99 81 100 105 87 87 62 48 79 105 113 124 135 126 137
47 51 55 53 52 59 64 62 66 70 75 87 106 111 114 111 103 108 103 108 119 102 84 121 95 115 106 93 84 82 70 55 72 96 99 128 129 135
44 48 52 50 50 60 64 71 79 88 92 87 94 108 109 115 107 111 118 118 129 115 82 110 92 107 103 99 87 77 66 60 56 77 91 111 128 127
41 44 46 49 58 52 61 79 94 97 80 78 83 87 91 96 96 99 108 98 109 104 80 89 95 94 93 100 90 78 66 65 72 73 90 98 110 118
41 44 47 51 49 50 63 77 92 96 86 94 97 93 106 116 85 78 91 97 99 113 99 83 80 69 87 96 84 57 51 59 56 53 87 103 108 108
38 46 46 46 45 55 55 66 73 78 87 98 92 86 87 84 81 69 77 90 97 109 95 81 92 88 88 99 103 76 61 76 80 76 64 91 108 124
35 37 40 40 50 54 54 57 58 63 69 79 81 82 84 84 81 82 78 93 87 111 105 96 96 86 85 92 94 100 93 77 79 85 78 69 98 130
23 25 33 40 45 47 49 53 55 59 64 73 80 78 83 91 90 89 87 74 83 106 96 93 108 105 100 101 96 84 75 72 73 89 87 68 85 122
15 20 29 35 38 47 53 55 57 59 62 67 79 79 86 90 88 82 84 78 86 96 81 92 96 98 106 102 96 98 92 81 70 86 90 68 71 101
11 19 25 33 43 49 56 60 62 65 69 71 81 79 87 92 88 82 76 86 87 85 87 81 72 88 92 98 95 88 77 83 97 97 92 81 72 97
11 17 26 35 43 52 61 68 71 72 75 79 85 76 92 91 91 90 85 78 80 78 79 80 67 73 81 84 87 92 88 86 99 93 92 83 70 65
10 18 26 34 41 50 58 66 75 78 83 85 90 81 92 99 95 91 82 77 78 76 78 83 75 66 71 69 76 78 89 93 92 86 90 77 73 53
11 18 25 32 39 48 57 66 73 80 86 89 94 84 95 102 98 91 83 79 80 80 83 84 78 77 66 66 69 68 69 77 83 83 81 65 68 72
10 17 24 30 37 47 55 64 70 80 85 90 93 84 104 102 99 91 87 85 82 78 83 87 83 75 83 74 79 87 87 88 90 88 84 75 62 90
9 15 21 28 35 45 54 64 71 79 86 88 90 90 110 104 98 95 90 90 85 80 84 90 82 75 78 79 75 81 80 85 84 80 85 95 77 71
11 15 23 30 35 41 52 61 67 76 83 86 87 103 116 108 102 95 94 86 84 84 78 80 75 72 71 75 83 74 67 83 81 72 71 82 87 106
Wind_Direction_500mb
288 293 298 301 302 301 300 296 295 302 304 304 306 304 303 303 302 300 298 296 295 292 288 285 284 283 276 273 265 263 268 261 257 256 239 235 230 236
286 291 293 295 297 297 295 293 290 286 289 297 297 298 301 302 301 298 296 296 292 291 288 283 282 278 276 270 265 263 262 260 259 256 249 234 232 228
284 286 290 294 295 295 294 293 290 285 282 294 294 299 300 301 302 304 305 303 299 293 286 282 279 277 274 271 268 263 259 257 256 253 251 238 231 231
283 287 292 295 296 298 299 297 294 294 285 291 300 301 302 304 307 304 306 307 302 296 288 283 281 280 278 276 271 265 257 254 249 245 245 240 229 230
284 290 296 298 299 302 303 301 300 294 289 288 297 302 305 305 303 298 301 304 300 294 289 285 283 282 279 277 275 269 255 248 246 244 243 244 235 231
286 293 297 299 302 303 303 299 300 298 294 283 283 291 291 296 296 295 297 294 295 295 293 289 289 288 285 276 276 266 263 256 251 243 239 244 240 229
290 296 297 300 302 305 295 293 296 295 289 282 279 282 286 289 289 294 292 294 290 289 293 298 298 296 289 282 273 280 269 256 251 245 239 238 237 232
293 296 299 302 304 305 298 288 287 290 288 286 285 282 282 282 286 284 285 288 288 288 289 286 287 289 293 288 270 274 273 257 253 245 239 237 243 235
294 297 300 302 307 315 311 295 294 290 285 287 286 283 284 286 286 284 282 281 280 284 282 282 284 286 291 296 281 280 280 263 240 237 245 240 238 239
289 299 302 310 315 305 306 304 302 299 296 293 287 288 286 288 285 283 283 278 280 279 273 273 278 281 288 294 285 279 273 252 265 251 245 238 239 238
294 299 307 310 309 304 304 305 304 305 301 297 293 286 284 284 283 284 281 278 274 276 270 266 274 278 285 290 287 275 269 274 268 259 245 237 235 234
294 303 309 306 303 305 306 306 301 310 317 312 303 291 287 291 291 278 281 272 270 275 268 275 279 279 282 283 287 278 262 253 263 272 241 235 228 227
294 297 305 311 308 306 308 299 306 314 305 303 308 308 310 308 301 288 284 274 267 267 273 268 265 267 264 273 280 260 266 260 266 276 244 242 231 217
280 299 313 313 314 318 314 317 312 309 315 326 319 312 308 308 304 297 290 270 271 269 272 272 264 260 261 264 268 272 265 268 270 274 279 243 234 222
292 306 316 322 322 322 328 333 331 330 332 322 319 313 309 310 307 303 304 291 287 272 266 268 265 261 257 257 262 264 266 265 267 270 277 259 229 229
302 325 328 324 333 339 341 343 341 342 338 320 319 321 312 312 309 306 303 295 293 289 275 268 267 264 258 254 252 257 256 260 261 269 274 264 234 232
326 331 322 342 344 346 348 349 347 346 341 332 330 320 315 314 310 309 301 296 289 287 285 271 269 266 266 260 246 250 251 258 263 271 276 270 228 221
315 331 344 349 347 351 351 350 351 348 345 341 335 317 317 318 315 310 304 296 290 286 283 280 272 261 255 258 254 254 253 253 262 263 266 264 254 223
302 336 347 348 348 348 349 349 349 348 347 346 335 319 320 321 317 312 307 301 294 289 284 278 272 274 248 250 256 253 251 252 255 257 262 256 261 227
318 339 346 348 350 349 349 348 348 350 349 349 341 325 324 322 318 314 309 304 299 295 290 284 273 262 271 261 261 257 253 256 252 257 262 260 253 228
329 337 345 346 349 351 350 350 350 349 348 349 341 333 327 324 319 316 312 308 302 295 287 284 275 270 264 264 266 253 252 258 257 258 256 252 239 185
331 332 341 342 350 351 350 351 352 351 350 349 343 334 331 327 322 319 316 311 305 296 287 287 286 276 267 262 270 258 257 265 263 259 248 245 207 181
321 338 343 346 350 350 351 352 351 351 351 347 346 335 337 331 328 324 320 315 309 302 294 288 286 278 271 262 257 262 259 262 267 259 257 229 218 191
Wind_Speed_850mb
40 39 40 44 47 52 57 59 61 66 128 89 101 105 111 116 119 115 117 122 120 117 101 100 104 113 107 103 107 102 87 82 95 97 113 109 102 92
42 41 42 48 52 56 60 62 62 68 96 119 121 122 124 123 123 119 122 120 123 122 111 99 102 100 102 105 105 101 97 90 86 97 107 121 108 111
41 44 47 51 57 59 61 64 66 66 90 150 122 122 121 123 125 121 119 118 118 109 95 89 88 92 96 99 99 104 102 102 94 92 97 123 129 113
44 48 50 54 59 61 63 66 67 69 74 109 132 127 123 120 121 114 115 112 108 100 90 84 83 84 88 96 102 106 111 110 123 109 106 116 138 132
45 48 53 58 61 62 63 68 68 66 70 86 126 120 126 120 116 105 109 117 108 90 85 79 76 73 78 83 88 96 113 114 123 129 115 118 124 138
46 50 56 59 62 63 64 64 67 69 74 84 104 122 107 108 103 104 110 100 103 98 94 88 85 81 78 80 83 93 100 114 126 130 121 120 122 137
46 51 56 57 58 56 55 61 64 73 78 83 94 96 106 100 90 98 101 112 108 94 101 95 78 79 78 82 76 64 89 112 121 123 128 119 121 136
47 52 55 56 54 54 52 56 61 73 85 89 98 99 112 102 102 98 99 104 118 81 83 99 81 100 105 87 87 62 48 79 105 113 124 135 126 137
47 51 55 53 52 59 64 62 66 70 75 87 106 111 114 111 103 108 103 108 119 102 84 121 95 115 106 93 84 82 70 55 72 96 99 128 129 135
44 48 52 50 50 60 64 71 79 88 92 87 94 108 109 115 107 111 118 118 129 115 82 110 92 107 103 99 87 77 66 60 56 77 91 111 128 127
41 44 46 49 58 52 61 79 94 97 80 78 83 87 91 96 96 99 108 98 109 104 80 89 95 94 93 100 90 78 66 65 72 73 90 98 110 118
41 44 47 51 49 50 63 77 92 96 86 94 97 93 106 116 85 78 91 97 99 113 99 83 80 69 87 96 84 57 51 59 56 53 87 103 108 108
38 46 46 46 45 55 55 66 73 78 87 98 92 86 87 84 81 69 77 90 97 109 95 81 92 88 88 99 103 76 61 76 80 76 64 91 108 124
35 37 40 40 50 54 54 57 58 63 69 79 81 82 84 84 81 82 78 93 87 111 105 96 96 86 85 92 94 100 93 77 79 85 78 69 98 130
23 25 33 40 45 47 49 53 55 59 64 73 80 78 83 91 90 89 87 74 83 106 96 93 108 105 100 101 96 84 75 72 73 89 87 68 85 122
15 20 29 35 38 47 53 55 57 59 62 67 79 79 86 90 88 82 84 78 86 96 81 92 96 98 106 102 96 98 92 81 70 86 90 68 71 101
11 19 25 33 43 49 56 60 62 65 69 71 81 79 87 92 88 82 76 86 87 85 87 81 72 88 92 98 95 88 77 83 97 97 92 81 72 97
11 17 26 35 43 52 61 68 71 72 75 79 85 76 92 91 91 90 85 78 80 78 79 80 67 73 81 84 87 92 88 86 99 93 92 83 70 65
10 18 26 34 41 50 58 66 75 78 83 85 90 81 92 99 95 91 82 77 78 76 78 83 75 66 71 69 76 78 89 93 92 86 90 77 73 53
11 18 25 32 39 48 57 66 73 80 86 89 94 84 95 102 98 91 83 79 80 80 83 84 78 77 66 66 69 68 69 77 83 83 81 65 68 72
10 17 24 30 37 47 55 64 70 80 85 90 93 84 104 102 99 91 87 85 82 78 83 87 83 75 83 74 79 87 87 88 90 88 84 75 62 90
9 15 21 28 35 45 54 64 71 79 86 88 90 90 110 104 98 95 90 90 85 80 84 90 82 75 78 79 75 81 80 85 84 80 85 95 77 71
11 15 23 30 35 41 52 61 67 76 83 86 87 103 116 108 102 95 94 86 84 84 78 80 75 72 71 75 83 74 67 83 81 72 71 82 87 106
Wind_Direction_850mb
288 293 298 301 302 301 300 296 295 302 304 304 306 304 303 303 302 300 298 296 295 292 288 285 284 283 276 273 265 263 268 261 257 256 239 235 230 236
286 291 293 295 297 297 295 293 290 286 289 297 297 298 301 302 301 298 296 296 292 291 288 283 282 278 276 270 265 263 262 260 259 256 249 234 232 228
284 286 290 294 295 295 294 293 290 285 282 294 294 299 300 301 302 304 305 303 299 293 286 282 279 277 274 271 268 263 259 257 256 253 251 238 231 231
283 287 292 295 296 298 299 297 294 294 285 291 300 301 302 304 307 304 306 307 302 296 288 283 281 280 278 276 271 265 257 254 249 245 245 240 229 230
284 290 296 298 299 302 303 301 300 294 289 288 297 302 305 305 303 298 301 304 300 294 289 285 283 282 279 277 275 269 255 248 246 244 243 244 235 231
286 293 297 299 302 303 303 299 300 298 294 283 283 291 291 296 296 295 297 294 295 295 293 289 289 288 285 276 276 266 263 256 251 243 239 244 240 229
290 296 297 300 302 305 295 293 296 295 289 282 279 282 286 289 289 294 292 294 290 289 293 298 298 296 289 282 273 280 269 256 251 245 239 238 237 232
293 296 299 302 304 305 298 288 287 290 288 286 285 282 282 282 286 284 285 288 288 288 289 286 287 289 293 288 270 274 273 257 253 245 239 237 243 235
294 297 300 302 307 315 311 295 294 290 285 287 286 283 284 286 286 284 282 281 280 284 282 282 284 286 291 296 281 280 280 263 240 237 245 240 238 239
289 299 302 310 315 305 306 304 302 299 296 293 287 288 286 288 285 283 283 278 280 279 273 273 278 281 288 294 285 279 273 252 265 251 245 238 239 238
294 299 307 310 309 304 304 305 304 305 301 297 293 286 284 284 283 284 281 278 274 276 270 266 274 278 285 290 287 275 269 274 268 259 245 237 235 234
294 303 309 306 303 305 306 306 301 310 317 312 303 291 287 291 291 278 281 272 270 275 268 275 279 279 282 283 287 278 262 253 263 272 241 235 228 227
294 297 305 311 308 306 308 299 306 314 305 303 308 308 310 308 301 288 284 274 267 267 273 268 265 267 264 273 280 260 266 260 266 276 244 242 231 217
280 299 313 313 314 318 314 317 312 309 315 326 319 312 308 308 304 297 290 270 271 269 272 272 264 260 261 264 268 272 265 268 270 274 279 243 234 222
292 306 316 322 322 322 328 333 331 330 332 322 319 313 309 310 307 303 304 291 287 272 266 268 265 261 257 257 262 264 266 265 267 270 277 259 229 229
302 325 328 324 333 339 341 343 341 342 338 320 319 321 312 312 309 306 303 295 293 289 275 268 267 264 258 254 252 257 256 260 261 269 274 264 234 232
326 331 322 342 344 346 348 349 347 346 341 332 330 320 315 314 310 309 301 296 289 287 285 271 269 266 266 260 246 250 251 258 263 271 276 270 228 221
315 331 344 349 347 351 351 350 351 348 345 341 335 317 317 318 315 310 304 296 290 286 283 280 272 261 255 258 254 254 253 253 262 263 266 264 254 223
302 336 347 348 348 348 349 349 349 348 347 346 335 319 320 321 317 312 307 301 294 289 284 278 272 274 248 250 256 253 251 252 255 257 262 256 261 227
318 339 346 348 350 349 349 348 348 350 349 349 341 325 324 322 318 314 309 304 299 295 290 284 273 262 271 261 261 257 253 256 252 257 262 260 253 228
329 337 345 346 349 351 350 350 350 349 348 349 341 333 327 324 319 316 312 308 302 295 287 284 275 270 264 264 266 253 252 258 257 258 256 252 239 185
331 332 341 342 350 351 350 351 352 351 350 349 343 334 331 327 322 319 316 311 305 296 287 287 286 276 267 262 270 258 257 265 263 259 248 245 207 181
321 338 343 346 350 350 351 352 351 351 351 347 346 335 337 331 328 324 320 315 309 302 294 288 286 278 271 262 257 262 259 262 267 259 257 229 218 191